Location: Miramont
(43.5949°N, 0.3262°W)
Time: 17:07:12
(UTC+00:00)

Daily predictions for brighter satellites

Satellite Brightness Start Highest point End
(mag) Time Altitude Azimuth Time Altitude Azimuth Time Altitude Azimuth
CZ-2D R/B 3.4 17:17:18 10° SE 17:20:08 32° ENE 17:22:59 10° N
SJ-12 4.2 17:17:06 10° SE 17:20:39 38° ENE 17:24:13 10° N
Cosmos 304 Rocket 4.3 17:16:02 10° NNW 17:20:45 66° WSW 17:25:26 10° S
Cosmos 1484 Rocket 3.6 17:20:09 10° S 17:23:23 48° W 17:26:38 10° NNW
ATLAS 5 CENTAUR R/B 1.3 17:20:37 10° SW 17:23:30 49° NW 17:26:33 10° NNE
Cosmos 2366 rocket 4.2 17:17:39 10° N 17:23:51 52° ENE 17:30:00 10° SSE
Cosmos 1452 Rocket 4.4 17:19:43 10° SSE 17:24:08 29° E 17:28:36 10° NE
Dummy Sat-02 4.5 17:23:04 10° N 17:26:40 65° E 17:30:12 10° S
COSMO-SKYMED 1 4.1 17:24:27 10° NE 17:26:58 16° E 17:29:27 10° SE
OPS 8737 4.0 17:24:12 10° NNW 17:27:14 66° NE 17:30:21 10° SE
Cosmos 1633 Rocket 3.0 17:23:42 10° N 17:28:00 69° E 17:32:17 10° SSE
Cosmos 2218 Rocket 4.2 17:21:58 10° N 17:28:13 52° ENE 17:34:24 10° SSE
Meteor 1-21 4.5 17:29:49 10° SSE 17:35:10 48° E 17:40:31 10° NNE
Cosmos 332 Rocket 4.0 17:31:38 10° N 17:36:13 45° ENE 17:40:48 10° SE
Cosmos 1666 Rocket 3.8 17:33:15 10° NNW 17:37:42 76° W 17:42:07 10° S
ISS -3.7 17:35:23 10° SW 17:38:41 71° SE 17:41:35 13° ENE
Cosmos 1953 2.2 17:35:30 10° N 17:39:07 51° E 17:42:42 10° SSE
BREEZE-M DEB (TANK) 3.8 17:35:56 10° W 17:41:33 43° NNW 17:45:23 12° NE
ERS-1 4.4 17:37:37 10° SSE 17:42:30 66° ENE 17:47:29 10° N
Cosmos 1328 Rocket 4.0 17:38:55 10° SSW 17:43:14 65° W 17:47:36 10° N
BREEZE-M DEB (TANK) 2.6 17:40:59 10° WNW 17:43:37 70° NNE 17:52:38 10° ESE
UNK 4.1 17:39:16 10° N 17:43:45 68° WNW 17:48:13 10° SSW
Cosmos 2341 Rocket 4.0 17:37:28 10° N 17:43:50 79° E 17:50:05 10° S
MOS 1 Rocket 3.6 17:38:36 10° SSE 17:43:54 86° WSW 17:49:02 10° NNW
Cosmos 1340 Rocket 3.9 17:42:03 10° NNE 17:45:03 21° ENE 17:48:02 10° ESE
IRS-P3 4.1 17:42:11 10° SSE 17:47:24 63° ENE 17:52:40 10° N
Landsat 7 4.1 17:43:05 10° S 17:47:43 69° WSW 17:52:22 10° NNW
USA 215 3.9 17:44:40 12° ENE 17:50:17 37° SE 17:56:14 10° SSW
Cosmos 1959 Rocket 4.4 17:45:25 10° N 17:51:32 72° E 17:57:41 10° SSE
Meteor 1-15 Rocket 4.4 17:47:27 10° NNW 17:53:24 84° W 17:59:15 10° S
SMAP 4.1 17:50:10 10° S 17:54:41 50° W 17:59:13 10° NNW
SKYMED 2 3.7 17:52:42 10° NNE 17:56:59 55° E 18:01:13 10° S
Okean 3 4.2 17:54:50 10° SSE 17:58:19 28° E 18:01:04 14° NE
Meteor 1-12 Rocket 4.3 17:52:57 10° N 17:58:31 56° ENE 18:04:03 10° SSE
SJ-6F 4.3 17:55:49 10° SSE 17:59:52 84° ENE 18:03:56 10° NNW
COSMOS 2455 4.5 17:58:38 10° N 18:01:54 15° NNE 18:03:11 14° NE
AQUARIUS 4.3 17:57:50 10° S 18:02:14 74° WSW 18:06:40 10° NNW
PSLV R/B 4.1 18:00:25 10° SE 18:04:06 32° ENE 18:07:49 10° N
CZ-4 R/B 4.2 18:00:29 10° SSE 18:04:24 70° ENE 18:08:21 10° N
SJ 16-02 3.9 18:02:09 10° NW 18:05:35 24° W 18:09:00 10° SSW
ARIANE 5 R/B 3.1 18:00:26 10° S 18:05:35 63° WSW 18:10:47 10° NNW
Cosmos 1515 Rocket 3.6 18:03:56 10° S 18:08:19 87° W 18:12:47 10° N
YAOGAN 1 2.6 18:04:29 10° SSE 18:08:35 50° ENE 18:12:42 10° N
SOZ 4.1 18:06:32 10° NW 18:08:46 67° NE 18:12:08 14° ESE
Cosmos 1697 Rocket 4.1 18:05:40 10° N 18:09:27 18° NE 18:09:49 18° NE
Cosmos 1603 3.7 18:03:50 10° SSW 18:09:30 85° WNW 18:15:10 10° NNE
CZ-3 Stage 3 4.3 18:03:07 10° SW 18:14:52 25° S 18:19:45 10° SE
Cosmos 1833 Rocket 3.7 18:13:07 10° SSE 18:17:33 24° ESE 18:18:28 23° E
Resurs 01 Rocket 2.4 18:14:45 10° SE 18:18:30 29° ENE 18:22:17 10° N
Meteor 2-15 4.4 18:14:24 10° N 18:20:34 83° E 18:26:40 10° S
Okean 2 3.1 18:17:45 10° S 18:21:36 81° E 18:25:28 10° N
USA 267 3.8 18:20:26 23° ENE 18:23:55 39° NNE 18:29:53 10° NW
USA 238 DEB 4.1 18:16:34 10° NW 18:24:06 84° SW 18:32:15 10° SSE
USA 238 4.1 18:16:40 10° NW 18:24:12 85° SW 18:32:22 10° SSE
BREEZE M DEB (TANK) 3.7 18:22:40 10° WNW 18:24:58 40° SSW 18:29:48 10° SE
SL-24 R/B - RUBIN 2 3.5 18:20:48 10° NNW 18:25:07 58° NE 18:27:55 21° SE
Cosmos 968 Rocket 4.1 18:20:13 10° NNW 18:25:16 59° WSW 18:30:15 10° S
RESURS DK-1 2.1 18:26:26 10° SSW 18:30:24 77° ESE 18:32:05 33° NE
Cosmos 292 Rocket 3.6 18:30:52 10° NNW 18:35:36 84° ENE 18:40:17 10° SSE
BREEZE-M DEB (TANK) 2.8 18:34:24 10° WSW 18:36:56 65° NNW 18:38:15 38° NE
CZ-2D R/B 3.4 18:35:13 10° S 18:39:03 73° WSW 18:42:52 10° NNW
Cosmos 1821 Rocket 4.3 18:32:55 10° NNW 18:39:03 67° W 18:45:06 10° S
USA 276 3.2 18:36:58 10° W 18:38:41 30° NW 18:38:41 30° NW
Cosmos 1933 Rocket 3.8 18:35:14 10° NNW 18:39:37 69° W 18:43:56 10° S
Cosmos 1741 Rocket 4.4 18:35:07 10° NNW 18:40:18 64° WSW 18:45:24 10° S
Helios 1A Rocket 4.2 18:45:40 21° SSE 18:45:40 21° SSE 18:46:56 10° S
Cosmos 1302 Rocket 3.9 18:42:01 10° SSW 18:47:16 88° ESE 18:50:33 24° NNE
Cosmos 2360 4.1 18:42:36 10° NNW 18:48:19 66° ENE 18:52:21 20° SE
Cosmos 1339 Rocket 4.3 18:45:54 10° S 18:52:03 72° E 18:58:09 10° NNE
SL-08 R/B 4.4 18:46:10 10° N 18:52:39 78° E 18:59:06 10° SSE
Radarsat Rocket 4.1 18:47:31 10° SSE 18:53:55 79° WSW 18:59:50 10° NNW
NOAA 6 4.1 18:55:43 10° S 19:00:48 77° WSW 19:05:57 10° NNW
COSMO-SKYMED 1 3.4 18:59:11 14° N 19:02:29 45° WNW 19:06:24 10° SW
NOSS 3-4 (A) 4.4 18:58:49 10° WSW 19:03:41 35° NW 19:06:56 20° NNE
NOSS 3-4 (C) 4.4 18:58:55 10° WSW 19:03:49 36° NW 19:07:06 20° NNE
CARTOSAT-1 3.7 18:59:45 10° S 19:03:56 71° WSW 19:08:09 10° NNW
IRAS Rocket 4.2 19:00:17 10° SSE 19:05:47 86° WSW 19:11:22 10° NNW
Cosmos 1869 Rocket 4.3 19:01:57 10° NNW 19:06:13 51° W 19:10:25 10° S
Meteor 2-8 Rocket 4.4 19:04:45 10° N 19:10:55 82° W 19:17:05 10° S
USA 59 Rocket 2.2 19:11:24 10° NNW 19:11:42 12° NNW 19:11:42 12° NNW
ISS -1.5 19:12:47 10° WNW 19:14:32 22° NW 19:14:32 22° NW
Cosmos 1992 Rocket 3.8 19:11:32 10° SSW 19:16:43 88° ESE 19:16:54 83° NE
Cosmos 1656 4.1 19:11:52 10° NNW 19:17:22 60° WSW 19:22:45 10° S
Cosmos 1934 Rocket 3.9 19:15:50 10° N 19:21:59 84° W 19:28:13 10° S
Cosmos 1980 Rocket 4.2 19:24:43 10° N 19:25:55 15° N 19:25:55 15° N
Cosmos 909 Rocket 4.1 19:24:32 10° SSW 19:32:29 74° ESE 19:32:59 71° E
USA 215 3.4 19:32:01 53° NNE 19:33:33 70° NW 19:40:01 10° WSW
NOSS 3-1 (C) 4.1 19:30:53 10° NNW 19:37:23 57° NE 19:37:23 57° NE
BREEZE-M DEB (TANK) 4.1 19:38:40 10° W 19:42:45 57° N 19:43:30 54° NNE
COSMOS 2455 4.1 19:43:15 10° NNW 19:46:20 30° N 19:46:20 30° N
Cosmos 1697 Rocket 3.9 19:48:28 10° NNW 19:51:35 34° NNW 19:51:35 34° NNW
Resurs 01 Rocket 3.5 19:51:07 10° SSW 19:54:50 27° W 19:58:34 10° NW
Cosmos 1833 Rocket 3.5 19:55:37 10° SW 20:00:12 47° W 20:00:12 47° W
USA 267 3.5 20:07:47 62° WNW 20:07:47 62° WNW 20:13:07 10° NW
